Estación de Alto del Carmen

Ultimos registro cada 15 minutos 90
Estación Fecha / Hora Temperatura Humedad Lluvia Velocidad Dirección Radiación Presion
90 Alto del Carmen 04-05-2026 22:15 13,3 72 0 0 335 0 1012,7
89 Alto del Carmen 04-05-2026 22:00 13,4 71 0 0 335 0 1012,8
88 Alto del Carmen 04-05-2026 21:45 14,1 65 0 0 335 0 1012,6
87 Alto del Carmen 04-05-2026 21:30 15,1 62 0 0 335 0 1012,4
86 Alto del Carmen 04-05-2026 21:15 16,3 58 0 0 335 0 1012,2
85 Alto del Carmen 04-05-2026 21:00 17,3 58 0 0 335 0 1012,1
84 Alto del Carmen 04-05-2026 20:45 18,5 54 0 0 335 0 1011,7
83 Alto del Carmen 04-05-2026 20:30 19,3 52 0 0,4 335 0 1011,4
82 Alto del Carmen 04-05-2026 20:15 19,8 50 0 0,9 348 0 1011,1
81 Alto del Carmen 04-05-2026 20:00 19,8 50 0 0,9 347 0 1010,6
80 Alto del Carmen 04-05-2026 19:45 20,3 49 0 2,7 326 0 1010,5
79 Alto del Carmen 04-05-2026 19:30 20,7 48 0 3,1 351 0 1010,1
78 Alto del Carmen 04-05-2026 19:15 21,1 46 0 2,7 345 0 1010,2
77 Alto del Carmen 04-05-2026 19:00 21,2 45 0 2,2 331 0 1009,7
76 Alto del Carmen 04-05-2026 18:45 21,6 44 0 1,8 328 0 1009,7
75 Alto del Carmen 04-05-2026 18:30 21,8 43 0 2,2 328 0 1009,3
74 Alto del Carmen 04-05-2026 18:15 22,4 41 0 2,2 289 0 1009,1
73 Alto del Carmen 04-05-2026 18:00 23,6 37 0 0,9 344 7 1009
72 Alto del Carmen 04-05-2026 17:45 24,2 34 0 2,7 337 14 1008,7
71 Alto del Carmen 04-05-2026 17:30 25,2 32 0 1,3 1 16 1008,6
70 Alto del Carmen 04-05-2026 17:15 26,7 28 0 1,8 311 44 1008,6
69 Alto del Carmen 04-05-2026 17:00 27,5 26 0 3,1 295 25 1008,5
68 Alto del Carmen 04-05-2026 16:45 28,6 22 0 3,6 313 216 1008,1
67 Alto del Carmen 04-05-2026 16:30 28,9 21 0 2,2 340 267 1008,1
66 Alto del Carmen 04-05-2026 16:15 29,3 21 0 2,2 316 308 1007,8
65 Alto del Carmen 04-05-2026 16:00 30,1 20 0 2,7 320 360 1008
64 Alto del Carmen 04-05-2026 15:45 30,6 16 0 4 311 404 1007,9
63 Alto del Carmen 04-05-2026 15:30 31,1 17 0 1,8 299 445 1008,1
62 Alto del Carmen 04-05-2026 15:15 31,3 15 0 3,1 316 483 1008,3
61 Alto del Carmen 04-05-2026 15:00 31,2 14 0 2,2 308 522 1008,4
60 Alto del Carmen 04-05-2026 14:45 31,3 14 0 2,2 299 555 1008,6
59 Alto del Carmen 04-05-2026 14:30 31,2 14 0 2,2 279 587 1008,8
58 Alto del Carmen 04-05-2026 14:15 31,2 13 0 1,8 299 612 1008,9
57 Alto del Carmen 04-05-2026 14:00 31,2 12 0 3,1 311 638 1009,2
56 Alto del Carmen 04-05-2026 13:45 30,8 13 0 3,1 310 657 1009,4
55 Alto del Carmen 04-05-2026 13:30 30,8 12 0 2,7 311 673 1009,4
54 Alto del Carmen 04-05-2026 13:15 30,2 13 0 1,8 285 687 1009,7
53 Alto del Carmen 04-05-2026 13:00 30 12 0 3,1 286 694 1009,9
52 Alto del Carmen 04-05-2026 12:45 29,5 10 0 2,7 297 698 1010,1
51 Alto del Carmen 04-05-2026 12:30 28,3 11 0 2,7 349 698 1010,2
50 Alto del Carmen 04-05-2026 12:15 28 12 0 2,7 1 694 1010,5
49 Alto del Carmen 04-05-2026 12:00 27,8 11 0 2,7 345 684 1010,8
48 Alto del Carmen 04-05-2026 11:45 27,2 12 0 2,2 13 670 1011
47 Alto del Carmen 04-05-2026 11:30 26 12 0 1,8 339 652 1011,4
46 Alto del Carmen 04-05-2026 11:15 25,2 15 0 1,8 347 631 1011,5
45 Alto del Carmen 04-05-2026 11:00 23,9 21 0 2,2 302 606 1012
44 Alto del Carmen 04-05-2026 10:45 22,3 26 0 0 354 578 1012,1
43 Alto del Carmen 04-05-2026 10:30 20,1 30 0 0,4 353 548 1012,2
42 Alto del Carmen 04-05-2026 10:15 17,3 37 0 0,4 353 520 1012,5
41 Alto del Carmen 04-05-2026 10:00 13,6 53 0 0,4 352 494 1012,5
40 Alto del Carmen 04-05-2026 09:45 9,6 68 0 0 353 95 1012,2
39 Alto del Carmen 04-05-2026 09:30 9,9 70 0 0 353 30 1012,5
38 Alto del Carmen 04-05-2026 09:15 9,8 68 0 0 353 47 1012,5
37 Alto del Carmen 04-05-2026 09:00 8,1 76 0 0,9 352 65 1012,6
36 Alto del Carmen 04-05-2026 08:45 6,2 82 0 0 16 97 1012,8
35 Alto del Carmen 04-05-2026 08:30 5,7 81 0 0,4 16 42 1012,6
34 Alto del Carmen 04-05-2026 08:15 5,4 80 0 0,9 16 21 1012,5
33 Alto del Carmen 04-05-2026 08:00 5,2 81 0 0,9 16 12 1012,6
32 Alto del Carmen 04-05-2026 07:45 4,7 82 0 0,4 16 9 1012,5
31 Alto del Carmen 04-05-2026 07:30 4,6 82 0 0 16 7 1012,4
30 Alto del Carmen 04-05-2026 07:15 4,4 82 0 0 16 0 1012,1
29 Alto del Carmen 04-05-2026 07:00 4,5 82 0 0,4 16 0 1012,2
28 Alto del Carmen 04-05-2026 06:45 5,1 82 0 0 16 0 1012,1
27 Alto del Carmen 04-05-2026 06:30 5,4 81 0 0 16 0 1012,1
26 Alto del Carmen 04-05-2026 06:15 5,8 82 0 0 16 0 1012,4
25 Alto del Carmen 04-05-2026 06:00 6 82 0 0 16 0 1012,4
24 Alto del Carmen 04-05-2026 05:45 5,7 83 0 0 16 0 1012,3
23 Alto del Carmen 04-05-2026 05:30 5,5 83 0 0,4 16 0 1012,4
22 Alto del Carmen 04-05-2026 05:15 5,4 83 0 0 16 0 1012,4
21 Alto del Carmen 04-05-2026 05:00 5,8 84 0 0,4 16 0 1012,2
20 Alto del Carmen 04-05-2026 04:45 5,5 86 0 0,4 16 0 1012,1
19 Alto del Carmen 04-05-2026 04:30 5,1 84 0 0 16 0 1012
18 Alto del Carmen 04-05-2026 04:15 5,1 83 0 0,4 16 0 1011,8
17 Alto del Carmen 04-05-2026 04:00 5,5 81 0 0 16 0 1011,8
16 Alto del Carmen 04-05-2026 03:45 6,2 79 0 0 16 0 1011,6
15 Alto del Carmen 04-05-2026 03:30 6,9 80 0 0 16 0 1011,6
14 Alto del Carmen 04-05-2026 03:15 7,4 82 0 0 16 0 1011,5
13 Alto del Carmen 04-05-2026 03:00 6,7 82 0 0,4 15 0 1011,7
12 Alto del Carmen 04-05-2026 02:45 6,7 82 0 0 15 0 1011,9
11 Alto del Carmen 04-05-2026 02:30 6,9 83 0 0,9 304 0 1011,9
10 Alto del Carmen 04-05-2026 02:15 6,7 84 0 0,4 304 0 1012
9 Alto del Carmen 04-05-2026 02:00 7 80 0 0 304 0 1011,9
8 Alto del Carmen 04-05-2026 01:45 7,4 81 0 0 304 0 1012,2
7 Alto del Carmen 04-05-2026 01:30 7,8 81 0 0 304 0 1012,1
6 Alto del Carmen 04-05-2026 01:15 8,3 80 0 0 304 0 1012,2
5 Alto del Carmen 04-05-2026 01:00 8,5 80 0 0,4 304 0 1012,4
4 Alto del Carmen 04-05-2026 00:45 8,3 82 0 0 304 0 1012,3
3 Alto del Carmen 04-05-2026 00:30 8,3 82 0 0,9 304 0 1012,5
2 Alto del Carmen 04-05-2026 00:15 8,6 78 0 0 304 0 1012,6
1 Alto del Carmen 04-05-2026 00:00 8,7 79 0 0 304 0 1012,6